TimeCDT,TemperatureF,Dew PointF,Humidity,Sea Level PressureIn,VisibilityMPH,Wind Direction,Wind SpeedMPH,Gust SpeedMPH,PrecipitationIn,Events,Conditions,WindDirDegrees,DateUTC
12:15 AM,17.6,15.8,93,30.18,10.0,SSW,13.8,-,N/A,,Clear,200,2014-03-09 06:15:00
12:35 AM,17.6,14.0,86,30.17,10.0,SSW,10.4,-,N/A,,Clear,200,2014-03-09 06:35:00
12:55 AM,17.6,14.0,86,30.16,10.0,SSW,11.5,-,N/A,,Clear,200,2014-03-09 06:55:00
1:15 AM,19.4,14.0,80,30.15,10.0,SSW,12.7,-,N/A,,Clear,200,2014-03-09 07:15:00
1:35 AM,19.4,14.0,80,30.15,10.0,SSW,13.8,-,N/A,,Clear,200,2014-03-09 07:35:00
1:55 AM,19.4,12.2,74,30.14,10.0,SSW,13.8,-,N/A,,Clear,200,2014-03-09 07:55:00
3:15 AM,19.4,14.0,80,30.12,10.0,South,17.3,-,N/A,,Clear,190,2014-03-09 08:15:00
3:35 AM,19.4,14.0,80,30.11,10.0,South,17.3,-,N/A,,Clear,190,2014-03-09 08:35:00
3:55 AM,21.2,14.0,74,30.09,10.0,South,18.4,-,N/A,,Clear,190,2014-03-09 08:55:00
4:15 AM,19.4,14.0,80,30.09,10.0,South,17.3,-,N/A,,Clear,190,2014-03-09 09:15:00
4:35 AM,19.4,14.0,80,30.08,10.0,South,17.3,-,N/A,,Clear,190,2014-03-09 09:35:00
4:55 AM,19.4,14.0,80,30.06,10.0,South,19.6,-,N/A,,Clear,190,2014-03-09 09:55:00
5:15 AM,19.4,15.8,86,30.05,10.0,South,17.3,-,N/A,,Clear,190,2014-03-09 10:15:00
5:35 AM,21.2,15.8,80,30.03,10.0,South,16.1,21.9,N/A,,Clear,190,2014-03-09 10:35:00
5:55 AM,21.2,15.8,80,30.02,10.0,South,18.4,-,N/A,,Clear,190,2014-03-09 10:55:00
6:15 AM,21.2,15.8,80,30.01,10.0,South,18.4,-,N/A,,Clear,190,2014-03-09 11:15:00
6:35 AM,21.2,15.8,80,30.01,10.0,SSW,18.4,-,N/A,,Clear,200,2014-03-09 11:35:00
6:55 AM,21.2,15.8,80,30.00,10.0,South,16.1,21.9,N/A,,Clear,190,2014-03-09 11:55:00
7:15 AM,21.2,15.8,80,30.00,10.0,South,16.1,-,N/A,,Clear,190,2014-03-09 12:15:00
7:35 AM,21.2,15.8,80,29.99,10.0,South,16.1,-,N/A,,Clear,190,2014-03-09 12:35:00
7:55 AM,21.2,15.8,80,29.97,10.0,South,18.4,-,N/A,,Clear,190,2014-03-09 12:55:00
8:15 AM,23.0,15.8,74,29.95,10.0,South,19.6,-,N/A,,Clear,190,2014-03-09 13:15:00
8:35 AM,24.8,15.8,69,29.94,10.0,South,19.6,-,N/A,,Clear,190,2014-03-09 13:35:00
8:55 AM,24.8,17.6,74,29.93,10.0,South,19.6,-,N/A,,Clear,190,2014-03-09 13:55:00
9:15 AM,26.6,19.4,74,29.92,10.0,South,17.3,-,N/A,,Clear,190,2014-03-09 14:15:00
9:35 AM,28.4,19.4,69,29.92,10.0,South,18.4,-,N/A,,Clear,190,2014-03-09 14:35:00
9:55 AM,30.2,21.2,69,29.90,10.0,South,18.4,-,N/A,,Clear,190,2014-03-09 14:55:00
10:15 AM,30.2,21.2,69,29.90,10.0,SSW,18.4,23.0,N/A,,Clear,200,2014-03-09 15:15:00
10:35 AM,30.2,23.0,75,29.88,10.0,SSW,18.4,-,N/A,,Partly Cloudy,200,2014-03-09 15:35:00
10:55 AM,32.0,23.0,69,29.87,10.0,SSW,18.4,24.2,N/A,,Clear,200,2014-03-09 15:55:00
11:15 AM,33.8,24.8,70,29.86,10.0,SSW,18.4,-,N/A,,Clear,200,2014-03-09 16:15:00
11:35 AM,35.6,26.6,70,29.85,10.0,SSW,17.3,-,N/A,,Clear,200,2014-03-09 16:35:00
11:55 AM,35.6,26.6,70,29.84,10.0,SSW,16.1,-,N/A,,Clear,200,2014-03-09 16:55:00
12:15 PM,37.4,26.6,65,29.83,10.0,South,15.0,-,N/A,,Clear,190,2014-03-09 17:15:00
12:35 PM,39.2,28.4,65,29.82,10.0,SSW,16.1,-,N/A,,Clear,210,2014-03-09 17:35:00
12:55 PM,39.2,28.4,65,29.81,10.0,SSW,17.3,-,N/A,,Clear,210,2014-03-09 17:55:00
1:15 PM,39.2,28.4,65,29.81,10.0,SW,15.0,-,N/A,,Clear,220,2014-03-09 18:15:00
1:35 PM,41.0,28.4,61,29.80,10.0,SSW,19.6,-,N/A,,Clear,210,2014-03-09 18:35:00
1:55 PM,41.0,28.4,61,29.78,10.0,SW,13.8,-,N/A,,Clear,220,2014-03-09 18:55:00
2:15 PM,42.8,28.4,57,29.76,10.0,SW,18.4,-,N/A,,Clear,220,2014-03-09 19:15:00
2:35 PM,44.6,30.2,57,29.75,10.0,SW,15.0,-,N/A,,Clear,220,2014-03-09 19:35:00
2:55 PM,44.6,30.2,57,29.74,10.0,SW,16.1,-,N/A,,Clear,230,2014-03-09 19:55:00
3:15 PM,44.6,30.2,57,29.74,10.0,SW,13.8,-,N/A,,Clear,230,2014-03-09 20:15:00
3:35 PM,46.4,32.0,57,29.75,10.0,WSW,15.0,-,N/A,,Clear,240,2014-03-09 20:35:00
3:55 PM,46.4,32.0,57,29.74,10.0,WSW,18.4,23.0,N/A,,Clear,240,2014-03-09 20:55:00
4:15 PM,46.4,32.0,57,29.74,10.0,WSW,17.3,23.0,N/A,,Clear,240,2014-03-09 21:15:00
4:35 PM,44.6,33.8,66,29.73,10.0,SW,16.1,-,N/A,,Clear,230,2014-03-09 21:35:00
4:55 PM,44.6,33.8,66,29.73,10.0,WSW,17.3,-,N/A,,Clear,240,2014-03-09 21:55:00
5:15 PM,46.4,33.8,62,29.72,10.0,WSW,17.3,-,N/A,,Clear,240,2014-03-09 22:15:00
5:35 PM,46.4,33.8,62,29.72,10.0,WSW,13.8,-,N/A,,Clear,240,2014-03-09 22:35:00
5:55 PM,46.4,33.8,62,29.72,10.0,WSW,12.7,-,N/A,,Clear,250,2014-03-09 22:55:00
6:15 PM,44.6,35.6,71,29.72,10.0,WSW,15.0,-,N/A,,Clear,250,2014-03-09 23:15:00
6:35 PM,44.6,33.8,66,29.73,10.0,WSW,12.7,-,N/A,,Clear,250,2014-03-09 23:35:00
6:55 PM,42.8,33.8,70,29.73,10.0,West,12.7,-,N/A,,Clear,260,2014-03-09 23:55:00
7:15 PM,42.8,33.8,70,29.74,10.0,West,13.8,-,N/A,,Clear,260,2014-03-10 00:15:00
7:35 PM,42.8,33.8,70,29.74,10.0,West,12.7,-,N/A,,Clear,260,2014-03-10 00:35:00
7:55 PM,42.8,33.8,70,29.74,10.0,West,11.5,-,N/A,,Clear,260,2014-03-10 00:55:00
8:15 PM,42.8,33.8,70,29.74,10.0,West,13.8,-,N/A,,Clear,260,2014-03-10 01:15:00
8:35 PM,42.8,33.8,70,29.74,10.0,West,13.8,-,N/A,,Clear,260,2014-03-10 01:35:00
8:55 PM,42.8,33.8,70,29.74,10.0,West,10.4,-,N/A,,Clear,260,2014-03-10 01:55:00
9:15 PM,41.0,33.8,76,29.74,10.0,West,11.5,-,N/A,,Clear,260,2014-03-10 02:15:00
9:35 PM,42.8,33.8,70,29.74,10.0,West,11.5,-,N/A,,Clear,260,2014-03-10 02:35:00
9:55 PM,44.6,33.8,66,29.74,10.0,West,12.7,-,N/A,,Clear,260,2014-03-10 02:55:00
10:15 PM,44.6,33.8,66,29.74,10.0,WSW,13.8,-,N/A,,Clear,250,2014-03-10 03:15:00
10:35 PM,44.6,33.8,66,29.73,10.0,WSW,12.7,-,N/A,,Partly Cloudy,250,2014-03-10 03:35:00
10:55 PM,44.6,32.0,61,29.73,10.0,WSW,13.8,-,N/A,,Scattered Clouds,250,2014-03-10 03:55:00
11:15 PM,44.6,33.8,66,29.73,10.0,WSW,12.7,-,N/A,,Partly Cloudy,240,2014-03-10 04:15:00
11:35 PM,44.6,32.0,61,29.72,10.0,WSW,12.7,-,N/A,,Clear,240,2014-03-10 04:35:00
11:55 PM,44.6,33.8,66,29.70,10.0,SW,11.5,-,N/A,,Clear,230,2014-03-10 04:55:00
12:15 AM,42.8,32.0,66,29.70,10.0,WSW,10.4,-,N/A,,Partly Cloudy,250,2014-03-10 05:15:00
12:35 AM,42.8,32.0,66,29.70,10.0,WSW,12.7,-,N/A,,Partly Cloudy,250,2014-03-10 05:35:00
12:55 AM,44.6,32.0,61,29.70,10.0,WSW,10.4,-,N/A,,Clear,250,2014-03-10 05:55:00